Wheaton NDB, MN

4:31 AM CST on November 18, 2017 (GMT -0600)
Wheaton Municipal

Weather History for KETH - April, 2013

Change the Weather History Date:

Monday, April 29, 2013

  Actual Average Record
Temperature  
Mean Temperature 52 °F -  
Max Temperature 68 °F 64 °F 87 °F (1952)
Min Temperature 35 °F 40 °F 20 °F (1958)
Degree Days  
Heating Degree Days 14    
Growing Degree Days 2 (Base 50)    
Moisture  
Dew Point 38 °F    
Average Humidity 62    
Maximum Humidity 87    
Minimum Humidity 32    
Precipitation  
Precipitation 0.00 in - - ()
Sea Level Pressure  
Sea Level Pressure 29.72 in    
Wind  
Wind Speed 7 mph (SE)    
Max Wind Speed 14 mph    
Max Gust Speed 18 mph    
Visibility 10 miles    
Events      
Averages and records for this station are not official NWS values.
T = Trace of Precipitation, MM = Missing Value Source: NWS Daily Summary

Daily Weather History Graph

Daily Weather History Graph

Search for Another Location

Airport or City:

Trip Planner

Search our weather history database for the weather conditions in past years. The results will help you decide how hot, cold, wet, or windy it might be!

Date:

Astronomy

Apr. 29, 2013 Rise Set
Actual Time 6:16 AM CDT 8:31 PM CDT
Civil Twilight 5:43 AM CDT 9:04 PM CDT
Nautical Twilight 5:03 AM CDT 9:45 PM CDT
Astronomical Twilight 4:17 AM CDT 10:30 PM CDT
Moon 12:07 AM CDT (4/29) 9:33 AM CDT (4/29)
Length of Visible Light 15h 20m
Length of Day
14h 15m
Waning Gibbous, 80% of the Moon is Illuminated
Apr 29
Waning Gibbous
May 2
Last Quarter
May 9
New
May 17
First Quarter
May 24
Full

Hourly Weather History & Observations

Time (CDT) Temp. Windchill Dew Point Humidity Pressure Visibility Wind Dir Wind Speed Gust Speed Precip Events Conditions
12:15 AM 42.8 °F 38.0 °F 30.2 °F 61% 29.89 in 10.0 mi NW 8.1 mph - N/A   Clear
12:35 AM 42.8 °F 38.6 °F 30.2 °F 61% 29.89 in 10.0 mi NW 6.9 mph - N/A   Clear
12:55 AM 41.0 °F 35.8 °F 30.2 °F 65% 29.89 in 10.0 mi NW 8.1 mph - N/A   Clear
1:15 AM 41.0 °F 36.4 °F 30.2 °F 65% 29.90 in 10.0 mi NW 6.9 mph - N/A   Clear
1:35 AM 41.0 °F 36.4 °F 30.2 °F 65% 29.90 in 10.0 mi NW 6.9 mph - N/A   Clear
1:55 AM 41.0 °F 37.1 °F 30.2 °F 65% 29.90 in 10.0 mi NNW 5.8 mph - N/A   Clear
2:15 AM 39.2 °F 33.6 °F 30.2 °F 70% 29.90 in 10.0 mi NW 8.1 mph - N/A   Clear
2:34 AM 39.2 °F 33.6 °F 30.2 °F 70% 29.90 in 10.0 mi NNW 8.1 mph - N/A   Clear
2:54 AM 37.4 °F 32.1 °F 30.2 °F 75% 29.90 in 10.0 mi NW 6.9 mph - N/A   Clear
3:15 AM 37.4 °F 33.8 °F 30.2 °F 75% 29.90 in 10.0 mi NW 4.6 mph - N/A   Clear
3:34 AM 37.4 °F 32.8 °F 30.2 °F 75% 29.90 in 10.0 mi NW 5.8 mph - N/A   Clear
3:55 AM 37.4 °F 32.8 °F 30.2 °F 75% 29.90 in 10.0 mi NW 5.8 mph - N/A   Clear
4:15 AM 37.4 °F 33.8 °F 30.2 °F 75% 29.90 in 10.0 mi NW 4.6 mph - N/A   Clear
4:34 AM 37.4 °F 34.9 °F 30.2 °F 75% 29.90 in 10.0 mi NNW 3.5 mph - N/A   Clear
4:55 AM 37.4 °F - 30.2 °F 75% 29.90 in 10.0 mi Calm Calm - N/A   Clear
5:14 AM 37.4 °F 34.9 °F 30.2 °F 75% 29.90 in 10.0 mi NNW 3.5 mph - N/A   Clear
5:34 AM 37.4 °F - 30.2 °F 75% 29.90 in 10.0 mi Calm Calm - N/A   Clear
5:55 AM 35.6 °F - 30.2 °F 81% 29.90 in 10.0 mi Calm Calm - N/A   Clear
6:15 AM 35.6 °F - 32.0 °F 87% 29.89 in 10.0 mi Calm Calm - N/A   Clear
6:34 AM 35.6 °F - 30.2 °F 81% 29.89 in 10.0 mi Calm Calm - N/A   Clear
6:54 AM 37.4 °F - 32.0 °F 81% 29.89 in 10.0 mi Calm Calm - N/A   Clear
7:15 AM 35.6 °F - 30.2 °F 81% 29.89 in 10.0 mi Calm Calm - N/A   Clear
7:35 AM 37.4 °F - 33.8 °F 87% 29.89 in 10.0 mi Calm Calm - N/A   Clear
7:54 AM 39.2 °F - 35.6 °F 87% 29.88 in 10.0 mi Calm Calm - N/A   Clear
8:14 AM 39.2 °F - 35.6 °F 87% 29.87 in 10.0 mi Calm Calm - N/A   Clear
8:34 AM 42.8 °F - 33.8 °F 70% 29.87 in 10.0 mi Calm Calm - N/A   Clear
8:54 AM 44.6 °F 42.2 °F 35.6 °F 71% 29.86 in 10.0 mi ESE 4.6 mph - N/A   Clear
9:14 AM 44.6 °F 40.2 °F 35.6 °F 71% 29.85 in 10.0 mi ESE 8.1 mph - N/A   Clear
9:35 AM 46.4 °F 41.9 °F 35.6 °F 66% 29.84 in 10.0 mi ESE 9.2 mph - N/A   Clear
9:54 AM 48.2 °F - 35.6 °F 62% 29.83 in 10.0 mi ESE 11.5 mph - N/A   Clear
10:15 AM 48.2 °F - 37.4 °F 66% 29.82 in 10.0 mi SE 10.4 mph - N/A   Clear
10:34 AM 50.0 °F - 37.4 °F 62% 29.81 in 10.0 mi SE 8.1 mph - N/A   Clear
10:54 AM 51.8 °F - 37.4 °F 58% 29.80 in 10.0 mi SE 9.2 mph - N/A   Clear
11:14 AM 53.6 °F - 39.2 °F 58% 29.78 in 10.0 mi ESE 9.2 mph - N/A   Clear
11:35 AM 55.4 °F - 37.4 °F 51% 29.78 in 10.0 mi SE 9.2 mph - N/A   Clear
11:54 AM 57.2 °F - 37.4 °F 48% 29.77 in 10.0 mi SSE 9.2 mph - N/A   Clear
12:15 PM 57.2 °F - 37.4 °F 48% 29.76 in 10.0 mi SSE 8.1 mph - N/A   Clear
12:35 PM 60.8 °F - 37.4 °F 42% 29.75 in 10.0 mi SE 8.1 mph 16.1 mph N/A   Clear
12:55 PM 60.8 °F - 37.4 °F 42% 29.74 in 10.0 mi SE 11.5 mph 17.3 mph N/A   Clear
1:14 PM 62.6 °F - 37.4 °F 39% 29.72 in 10.0 mi SE 10.4 mph - N/A   Clear
1:35 PM 62.6 °F - 37.4 °F 39% 29.71 in 10.0 mi SE 10.4 mph - N/A   Clear
1:55 PM 64.4 °F - 39.2 °F 40% 29.69 in 10.0 mi ESE 13.8 mph - N/A   Clear
2:15 PM 64.4 °F - 37.4 °F 37% 29.68 in 10.0 mi SSE 10.4 mph 18.4 mph N/A   Clear
2:34 PM 64.4 °F - 35.6 °F 34% 29.67 in 10.0 mi SSE 12.7 mph - N/A   Clear
2:54 PM 64.4 °F - 35.6 °F 34% 29.65 in 10.0 mi SSE 11.5 mph - N/A   Clear
3:14 PM 66.2 °F - 37.4 °F 35% 29.65 in 10.0 mi SE 11.5 mph 17.3 mph N/A   Clear
3:35 PM 66.2 °F - 37.4 °F 35% 29.63 in 10.0 mi SE 12.7 mph - N/A   Clear
3:55 PM 68.0 °F - 37.4 °F 33% 29.62 in 10.0 mi SE 13.8 mph - N/A   Clear
4:15 PM 66.2 °F - 35.6 °F 32% 29.62 in 10.0 mi SSE 12.7 mph 17.3 mph N/A   Clear
4:34 PM 66.2 °F - 37.4 °F 35% 29.61 in 10.0 mi SSE 12.7 mph - N/A   Clear
4:54 PM 66.2 °F - 35.6 °F 32% 29.60 in 10.0 mi SSE 11.5 mph - N/A   Clear
5:14 PM 66.2 °F - 39.2 °F 37% 29.59 in 10.0 mi SE 10.4 mph - N/A   Clear
5:34 PM 68.0 °F - 39.2 °F 35% 29.58 in 10.0 mi SE 11.5 mph - N/A   Clear
5:55 PM 66.2 °F - 42.8 °F 43% 29.56 in 10.0 mi SE 10.4 mph - N/A   Clear
6:15 PM 66.2 °F - 44.6 °F 46% 29.56 in 10.0 mi SE 9.2 mph - N/A   Clear
6:35 PM 66.2 °F - 46.4 °F 49% 29.55 in 10.0 mi SE 9.2 mph - N/A   Clear
6:55 PM 64.4 °F - 46.4 °F 52% 29.54 in 10.0 mi SE 9.2 mph - N/A   Clear
7:16 PM 64.4 °F - 48.2 °F 56% 29.53 in 10.0 mi SE 9.2 mph - N/A   Clear
7:34 PM 60.8 °F - 50.0 °F 68% 29.52 in 10.0 mi ESE 8.1 mph - N/A   Clear
7:54 PM 60.8 °F - 50.0 °F 68% 29.52 in 10.0 mi SE 9.2 mph - N/A   Scattered Clouds
8:14 PM 59.0 °F - 48.2 °F 67% 29.51 in 10.0 mi SE 9.2 mph - N/A   Scattered Clouds
8:34 PM 57.2 °F - 48.2 °F 72% 29.51 in 10.0 mi ESE 8.1 mph - N/A   Scattered Clouds
8:55 PM 55.4 °F - 48.2 °F 77% 29.49 in 10.0 mi ESE 10.4 mph - N/A   Scattered Clouds
9:14 PM 55.4 °F - 48.2 °F 77% 29.49 in 10.0 mi ESE 10.4 mph - N/A   Clear
9:35 PM 55.4 °F - 48.2 °F 77% 29.47 in 10.0 mi ESE 10.4 mph - N/A   Clear
9:55 PM 55.4 °F - 48.2 °F 77% 29.47 in 10.0 mi ESE 11.5 mph - N/A   Clear
10:15 PM 55.4 °F - 48.2 °F 77% 29.46 in 10.0 mi ESE 11.5 mph - N/A   Clear
10:35 PM 55.4 °F - 46.4 °F 72% 29.45 in 10.0 mi ESE 9.2 mph - N/A   Scattered Clouds
10:55 PM 53.6 °F - 46.4 °F 77% 29.44 in 10.0 mi ESE 9.2 mph - N/A   Scattered Clouds
11:15 PM 53.6 °F - 46.4 °F 77% 29.43 in 10.0 mi ESE 9.2 mph - N/A   Clear
11:35 PM 53.6 °F - 46.4 °F 77% 29.41 in 10.0 mi ESE 9.2 mph - N/A   Clear
11:55 PM 55.4 °F - 48.2 °F 77% 29.40 in 10.0 mi ESE 13.8 mph - N/A   Clear